| time (UTC) | temp F | wind direction | speed knots | gust knots | rain 1hr in | rain 24hr in | rain mn in | humidity % | barometer mb |
| 20260506164552 | 54 | 350 | 2.6 | 8.7 | 0.00 | 0.01 | 0.01 | 85 | 1012.7 |
| 20260506163057 | 54 | 360 | 3.5 | 11.3 | 0.00 | 0.01 | 0.01 | 85 | 1012.7 |
| 20260506161553 | 55 | 34 | 3.5 | 12.2 | 0.00 | 0.01 | 0.01 | 85 | 1012.3 |
| 20260506160059 | 55 | 350 | 4.3 | 10.4 | 0.00 | 0.01 | 0.01 | 87 | 1011.9 |
| 20260506154552 | 54 | 352 | 5.2 | 13.0 | 0.00 | 0.01 | 0.01 | 88 | 1011.8 |
| 20260506153053 | 52 | 350 | 3.5 | 8.7 | 0.01 | 0.01 | 0.01 | 89 | 1012.4 |
| 20260506151555 | 52 | 0 | 2.6 | 7.8 | 0.01 | 0.01 | 0.01 | 89 | 1012.9 |
| 20260506150053 | 52 | 314 | 5.2 | 12.2 | 0.01 | 0.01 | 0.01 | 87 | 1013.0 |
| 20260506144553 | 52 | 24 | 3.5 | 12.2 | 0.01 | 0.01 | 0.01 | 85 | 1013.2 |
| 20260506143053 | 52 | 311 | 6.1 | 13.0 | 0.00 | 0.00 | 0.00 | 83 | 1014.6 |
| 20260506141551 | 53 | 346 | 5.2 | 10.4 | 0.00 | 0.00 | 0.00 | 82 | 1013.3 |
| 20260506140053 | 53 | 338 | 7.8 | 13.9 | 0.00 | 0.00 | 0.00 | 81 | 1012.1 |
| 20260506134551 | 54 | 24 | 7.0 | 14.8 | 0.00 | 0.00 | 0.00 | 79 | 1012.3 |
| 20260506133101 | 54 | 355 | 5.2 | 13.0 | 0.00 | 0.00 | 0.00 | 78 | 1011.8 |
| 20260506131602 | 54 | 332 | 7.8 | 14.8 | 0.00 | 0.00 | 0.00 | 78 | 1011.5 |
| 20260506130056 | 55 | 325 | 6.1 | 13.0 | 0.00 | 0.00 | 0.00 | 78 | 1011.1 |
| 20260506124549 | 55 | 17 | 3.5 | 8.7 | 0.00 | 0.00 | 0.00 | 78 | 1010.8 |
| 20260506123052 | 55 | 337 | 5.2 | 13.0 | 0.00 | 0.00 | 0.00 | 79 | 1010.9 |
| 20260506121550 | 55 | 343 | 6.1 | 12.2 | 0.00 | 0.00 | 0.00 | 78 | 1010.4 |
| 20260506120056 | 56 | 344 | 5.2 | 10.4 | 0.00 | 0.00 | 0.00 | 79 | 1010.3 |
| 20260506114556 | 56 | 342 | 6.1 | 13.9 | 0.00 | 0.00 | 0.00 | 79 | 1010.3 |
| 20260506113053 | 56 | 349 | 7.8 | 13.0 | 0.00 | 0.00 | 0.00 | 79 | 1010.0 |
| 20260506111547 | 56 | 341 | 6.1 | 13.0 | 0.00 | 0.00 | 0.00 | 79 | 1009.9 |
| 20260506104555 | 57 | 5 | 5.2 | 11.3 | 0.00 | 0.00 | 0.00 | 79 | 1009.3 |
| 20260506103049 | 58 | 342 | 5.2 | 10.4 | 0.00 | 0.00 | 0.00 | 79 | 1009.1 |
| 20260506101552 | 58 | 335 | 5.2 | 9.6 | 0.00 | 0.00 | 0.00 | 78 | 1008.9 |
| 20260506100049 | 58 | 333 | 4.3 | 11.3 | 0.00 | 0.00 | 0.00 | 78 | 1008.7 |
| 20260506094619 | 59 | 336 | 7.0 | 10.4 | 0.00 | 0.00 | 0.00 | 78 | 1008.6 |
| 20260506093053 | 59 | 350 | 4.3 | 10.4 | 0.00 | 0.00 | 0.00 | 78 | 1008.4 |
| 20260506091552 | 60 | 344 | 5.2 | 9.6 | 0.00 | 0.00 | 0.00 | 78 | 1008.3 |
| 20260506090052 | 60 | 360 | 3.5 | 9.6 | 0.00 | 0.00 | 0.00 | 79 | 1008.2 |
| 20260506084551 | 60 | 327 | 3.5 | 7.0 | 0.00 | 0.00 | 0.00 | 78 | 1008.2 |
| 20260506083055 | 61 | 319 | 5.2 | 9.6 | 0.00 | 0.00 | 0.00 | 78 | 1008.1 |
| 20260506081555 | 61 | 327 | 4.3 | 7.8 | 0.00 | 0.00 | 0.00 | 78 | 1008.1 |
| 20260506073050 | 62 | 336 | 3.5 | 7.0 | 0.00 | 0.00 | 0.00 | 77 | 1007.7 |
| 20260506071555 | 62 | 341 | 3.5 | 7.8 | 0.00 | 0.00 | 0.00 | 77 | 1007.7 |
| 20260506061550 | 63 | 347 | 7.0 | 11.3 | 0.00 | 0.00 | 0.00 | 77 | 1007.5 |
| 20260506060112 | 64 | 346 | 5.2 | 10.4 | 0.00 | 0.00 | 0.00 | 76 | 1007.5 |
| 20260506044610 | 67 | 339 | 3.5 | 10.4 | 0.00 | 0.00 | 0.00 | 74 | 1007.3 |
| 20260506043054 | 67 | 355 | 6.1 | 11.3 | 0.00 | 0.00 | 0.00 | 73 | 1007.4 |
| 20260506041556 | 68 | 355 | 6.1 | 11.3 | 0.00 | 0.00 | 0.00 | 72 | 1007.3 |
| 20260506040055 | 69 | 340 | 5.2 | 11.3 | 0.00 | 0.00 | 0.00 | 72 | 1007.2 |
| 20260506034553 | 69 | 341 | 4.3 | 10.4 | 0.00 | 0.00 | 0.00 | 71 | 1007.0 |
| 20260506033052 | 70 | 355 | 4.3 | 10.4 | 0.00 | 0.00 | 0.00 | 70 | 1006.7 |
| 20260506031558 | 71 | 24 | 3.5 | 7.8 | 0.00 | 0.00 | 0.00 | 69 | 1006.3 |
| 20260506030052 | 72 | 9 | 2.6 | 8.7 | 0.00 | 0.00 | 0.00 | 69 | 1006.0 |
| 20260506024558 | 72 | 24 | 6.1 | 12.2 | 0.00 | 0.00 | 0.00 | 69 | 1006.4 |
| 20260506023100 | 73 | 352 | 4.3 | 9.6 | 0.00 | 0.00 | 0.00 | 67 | 1005.6 |
| 20260506021553 | 74 | 317 | 7.0 | 9.6 | 0.00 | 0.00 | 0.00 | 67 | 1005.5 |
| 20260506020049 | 75 | 30 | 4.3 | 8.7 | 0.00 | 0.00 | 0.00 | 66 | 1004.8 |
| 20260506014550 | 76 | 355 | 4.3 | 9.6 | 0.00 | 0.00 | 0.00 | 65 | 1004.5 |
| 20260506013052 | 76 | 338 | 3.5 | 7.8 | 0.00 | 0.00 | 0.00 | 65 | 1004.2 |
| 20260506011551 | 76 | 355 | 3.5 | 9.6 | 0.00 | 0.00 | 0.00 | 65 | 1003.9 |
| 20260506010050 | 77 | 346 | 3.5 | 7.8 | 0.00 | 0.00 | 0.00 | 64 | 1004.0 |
| 20260506004553 | 77 | 19 | 2.6 | 7.8 | 0.00 | 0.00 | 0.00 | 64 | 1003.3 |
| 20260506003046 | 78 | 344 | 3.5 | 10.4 | 0.00 | 0.00 | 0.00 | 63 | 1003.4 |
| 20260506001606 | 80 | 350 | 5.2 | 12.2 | 0.00 | 0.00 | 0.00 | 64 | 1003.6 |
| 20260506000053 | 83 | 291 | 0.9 | 4.3 | 0.00 | 0.00 | 0.00 | 74 | 1003.3 |
| 20260505234554 | 84 | 184 | 1.7 | 10.4 | 0.00 | 0.00 | 0.00 | 70 | 1002.9 |
| 20260505233051 | 85 | 101 | 2.6 | 8.7 | 0.00 | 0.00 | 0.00 | 68 | 1002.7 |
| 20260505231602 | 88 | 182 | 2.6 | 8.7 | 0.00 | 0.00 | 0.00 | 65 | 1002.4 |
| 20260505230059 | 90 | 113 | 1.7 | 7.0 | 0.00 | 0.00 | 0.00 | 55 | 1002.4 |
| 20260505224556 | 90 | 180 | 1.7 | 6.1 | 0.00 | 0.00 | 0.00 | 53 | 1002.4 |
| 20260505223048 | 89 | 200 | 1.7 | 5.2 | 0.00 | 0.00 | 0.00 | 56 | 1002.3 |
| 20260505221553 | 90 | 175 | 0.9 | 7.0 | 0.00 | 0.00 | 0.00 | 56 | 1002.2 |
| 20260505220056 | 90 | 0 | 0.9 | 7.0 | 0.00 | 0.00 | 0.00 | 54 | 1002.1 |
| 20260505214552 | 91 | 132 | 0.9 | 7.8 | 0.00 | 0.00 | 0.00 | 55 | 1002.3 |
| 20260505213105 | 90 | 253 | 1.7 | 8.7 | 0.00 | 0.00 | 0.00 | 56 | 1002.3 |
| 20260505211556 | 89 | 198 | 1.7 | 7.0 | 0.00 | 0.00 | 0.00 | 56 | 1002.5 |
| 20260505210055 | 89 | 177 | 1.7 | 6.1 | 0.00 | 0.00 | 0.00 | 56 | 1002.6 |
| 20260505204555 | 90 | 240 | 1.7 | 8.7 | 0.00 | 0.00 | 0.00 | 55 | 1002.8 |
| 20260505203103 | 89 | 265 | 3.5 | 8.7 | 0.00 | 0.00 | 0.00 | 56 | 1002.8 |
| 20260505201606 | 88 | 228 | 3.5 | 10.4 | 0.00 | 0.00 | 0.00 | 58 | 1003.1 |
| 20260505200058 | 88 | 220 | 1.7 | 10.4 | 0.00 | 0.00 | 0.00 | 60 | 1003.3 |
| 20260505194559 | 88 | 199 | 0.9 | 8.7 | 0.00 | 0.00 | 0.00 | 62 | 1003.2 |
| 20260505193052 | 86 | 244 | 4.3 | 12.2 | 0.00 | 0.00 | 0.00 | 59 | 1003.4 |
| 20260505191611 | 86 | 227 | 3.5 | 8.7 | 0.00 | 0.00 | 0.00 | 63 | 1003.5 |
| 20260505190049 | 85 | 145 | 3.5 | 10.4 | 0.00 | 0.00 | 0.00 | 63 | 1003.7 |
| 20260505184551 | 84 | 207 | 4.3 | 12.2 | 0.00 | 0.00 | 0.00 | 64 | 1004.0 |
| 20260505183053 | 84 | 184 | 3.5 | 10.4 | 0.00 | 0.00 | 0.00 | 67 | 1004.0 |
| 20260505181552 | 83 | 215 | 5.2 | 13.9 | 0.00 | 0.00 | 0.00 | 67 | 1004.0 |
| 20260505174557 | 82 | 220 | 4.3 | 11.3 | 0.00 | 0.00 | 0.00 | 70 | 1004.2 |
| 20260505173048 | 80 | 175 | 4.3 | 13.0 | 0.00 | 0.00 | 0.00 | 72 | 1004.1 |
| 20260505171551 | 80 | 224 | 4.3 | 14.8 | 0.00 | 0.00 | 0.00 | 72 | 1004.1 |
| 20260505170047 | 80 | 113 | 4.3 | 14.8 | 0.00 | 0.00 | 0.00 | 74 | 1003.8 |